Notices

What's New in latest Release from April 7th, 2021:

- Updated Glossary, including Speed of Maximum Gust, and Total Hourly Precipitation

- Updated national and regional climate services offices contacts and prices information

- Addition of station inventory lists for 1981-2010, 1971-2000, and 1961-1990 Normals.

If you haven't already, please take our survey and provide feedback about our website: https://eccc.sondage-survey.ca/f/LanguageSelection.aspx?s=442ca660-fcf1-47c0-95a9-59707d6fd709

Hourly Data Report for January 22, 2021

CARBERRY CS
MANITOBA
Current Station Operator: ECCC - MSC

49°54'20.900" N
99°21'26.800" W
383.50 m
5010547
71170
WZE

Download Data

Hourly Data (January 2021)
Hourly Data Report for January 22, 2021
TIME
LST
Temp Definition
°C
Dew Point Definition
°C
Rel Hum Definition
%
Precip. Amount Definition
mm

Wind Dir Definition
10's deg

Wind Spd Definition
km/h
Visibility Definition
km
Stn Press Definition
kPa
Hmdx Definition


Wind Chill Definition


Weather Definition


00:00 -14.9 -18.2 76 0.0 25 11   97.27   -21 LegendNANA
01:00 -14.7 -17.6 78 0.0 21 7   97.23   -19 LegendNANA
02:00 -12.7 -16.0 77 0.0 25 14   97.18   -20 LegendNANA
03:00 -12.6 -15.9 76 0.0 26 18   97.16   -21 LegendNANA
04:00 -12.7 -15.6 79 0.0 25 13   97.11   -20 LegendNANA
05:00 -12.7 -15.0 83 0.0 26 16   97.10   -20 LegendNANA
06:00 -12.9 -15.0 84 0.0 25 13   97.09   -20 LegendNANA
07:00 -12.7 -15.0 83 0.0 26 18   97.10   -21 LegendNANA
08:00 -13.3 -15.5 84 0.0 27 19   97.11   -22 LegendNANA
09:00 -13.8 -15.9 84 0.0 27 13   97.16   -21 LegendNANA
10:00 -12.4 -14.8 83 0.0 28 19   97.19   -21 LegendNANA
11:00 -11.7 -14.4 80 0.0 28 12   97.22   -18 LegendNANA
12:00 -11.1 -13.9 80 0.0 27 17   97.17   -19 LegendNANA
13:00 -10.2 -13.2 78 0.0 26 15   97.12   -17 LegendNANA
14:00 -9.4 -12.7 77 0.0 28 18   97.12   -17 LegendNANA
15:00 -9.1 -12.8 75 0.0 28 17   97.09   -16 LegendNANA
16:00 -9.3 -13.3 73 0.0 28 15   97.12   -16 LegendNANA
17:00 -9.5 -14.1 69 0.0 23 9   97.10   -14 LegendNANA
18:00 -9.7 -14.1 70 0.0 23 6   97.12   -13 LegendNANA
19:00 -10.0 -13.6 75 0.0 19 8   97.08   -14 LegendNANA
20:00 -10.1 -13.4 77 0.0 18 9   97.05   -15 LegendNANA
21:00 -10.0 -12.7 81 0.0 18 12   97.03   -16 LegendNANA
22:00 -10.2 -13.0 80 0.0 19 10   97.00   -15 LegendNANA
23:00 -10.9 -13.3 83 0.0 19 11   96.94   -17 LegendNANA

Notes on Data Quality.

Legend

  • E = Estimated
  • M = Missing
  • NA = Not Available*
  • [empty] = Indicates an unobserved value
Date modified: